Time,TemperatureF,DewpointF,PressureIn,WindDirection,WindDirectionDegrees,WindSpeedMPH,WindSpeedGustMPH,Humidity,HourlyPrecipIn,Conditions,Clouds,dailyrainin,SoftwareType,DateUTC
2013-01-28 00:00:00,11.0,7.0,-100.00,WSW,250,0.0,0.0,86,-99.99,,,-99.99,,2013-01-28 07:00:00,
2013-01-28 00:32:00,11.0,7.0,-100.00,WSW,250,0.0,0.0,86,-99.99,,,-99.99,,2013-01-28 07:32:00,
2013-01-28 00:42:00,11.0,7.0,-100.00,WSW,250,0.0,0.0,86,-99.99,,,-99.99,,2013-01-28 07:42:00,
2013-01-28 00:52:00,11.0,7.0,-100.00,WSW,250,0.0,0.0,86,-99.99,,,-99.99,,2013-01-28 07:52:00,
2013-01-28 01:00:00,10.0,6.0,-100.00,SW,234,0.0,0.0,83,-99.99,,,-99.99,,2013-01-28 08:00:00,
2013-01-28 01:32:00,10.0,6.0,-100.00,SW,234,0.0,0.0,83,-99.99,,,-99.99,,2013-01-28 08:32:00,
2013-01-28 01:42:00,10.0,6.0,-100.00,SW,234,0.0,0.0,83,-99.99,,,-99.99,,2013-01-28 08:42:00,
2013-01-28 01:52:00,10.0,6.0,-100.00,SW,234,0.0,0.0,83,-99.99,,,-99.99,,2013-01-28 08:52:00,
2013-01-28 02:00:00,11.0,7.0,-100.00,South,181,0.0,0.0,83,-99.99,,,-99.99,,2013-01-28 09:00:00,
2013-01-28 02:32:00,11.0,7.0,-100.00,South,181,0.0,0.0,83,-99.99,,,-99.99,,2013-01-28 09:32:00,
2013-01-28 02:42:00,11.0,7.0,-100.00,South,181,0.0,0.0,83,-99.99,,,-99.99,,2013-01-28 09:42:00,
2013-01-28 02:52:00,11.0,7.0,-100.00,South,181,0.0,0.0,83,-99.99,,,-99.99,,2013-01-28 09:52:00,
2013-01-28 03:00:00,11.0,8.0,-100.00,SW,214,0.0,0.0,85,-99.99,,,-99.99,,2013-01-28 10:00:00,
2013-01-28 03:32:00,11.0,8.0,-100.00,SW,214,0.0,0.0,85,-99.99,,,-99.99,,2013-01-28 10:32:00,
2013-01-28 03:42:00,11.0,8.0,-100.00,SW,214,0.0,0.0,85,-99.99,,,-99.99,,2013-01-28 10:42:00,
2013-01-28 03:52:00,11.0,8.0,-100.00,SW,214,0.0,0.0,85,-99.99,,,-99.99,,2013-01-28 10:52:00,
2013-01-28 04:00:00,11.0,7.0,-100.00,SW,215,0.0,0.0,84,-99.99,,,-99.99,,2013-01-28 11:00:00,
2013-01-28 04:32:00,11.0,7.0,-100.00,SW,215,0.0,0.0,84,-99.99,,,-99.99,,2013-01-28 11:32:00,
2013-01-28 04:42:00,11.0,7.0,-100.00,SW,215,0.0,0.0,84,-99.99,,,-99.99,,2013-01-28 11:42:00,
2013-01-28 04:52:00,11.0,7.0,-100.00,SW,215,0.0,0.0,84,-99.99,,,-99.99,,2013-01-28 11:52:00,
2013-01-28 05:00:00,11.0,8.0,-100.00,SW,220,0.0,0.0,85,-99.99,,,-99.99,,2013-01-28 12:00:00,
2013-01-28 05:33:00,11.0,8.0,-100.00,SW,220,0.0,0.0,85,-99.99,,,-99.99,,2013-01-28 12:33:00,
2013-01-28 05:42:00,11.0,8.0,-100.00,SW,220,0.0,0.0,85,-99.99,,,-99.99,,2013-01-28 12:42:00,
2013-01-28 05:52:00,11.0,8.0,-100.00,SW,220,0.0,0.0,85,-99.99,,,-99.99,,2013-01-28 12:52:00,
2013-01-28 06:00:00,11.0,8.0,-100.00,South,189,0.0,0.0,85,-99.99,,,-99.99,,2013-01-28 13:00:00,
2013-01-28 06:33:00,11.0,8.0,-100.00,South,189,0.0,0.0,85,-99.99,,,-99.99,,2013-01-28 13:33:00,
2013-01-28 06:42:00,11.0,8.0,-100.00,South,189,0.0,0.0,85,-99.99,,,-99.99,,2013-01-28 13:42:00,
2013-01-28 06:53:00,11.0,8.0,-100.00,South,189,0.0,0.0,85,-99.99,,,-99.99,,2013-01-28 13:53:00,
2013-01-28 07:00:00,11.0,7.0,-100.00,South,179,0.0,0.0,84,-99.99,,,-99.99,,2013-01-28 14:00:00,
2013-01-28 07:33:00,11.0,7.0,-100.00,South,179,0.0,0.0,84,-99.99,,,-99.99,,2013-01-28 14:33:00,
2013-01-28 07:43:00,11.0,7.0,-100.00,South,179,0.0,0.0,84,-99.99,,,-99.99,,2013-01-28 14:43:00,
2013-01-28 07:53:00,11.0,7.0,-100.00,South,179,0.0,0.0,84,-99.99,,,-99.99,,2013-01-28 14:53:00,
2013-01-28 08:00:00,11.0,8.0,-100.00,SSW,200,0.0,0.0,85,-99.99,,,-99.99,,2013-01-28 15:00:00,
2013-01-28 08:33:00,11.0,8.0,-100.00,SSW,200,0.0,0.0,85,-99.99,,,-99.99,,2013-01-28 15:33:00,
2013-01-28 08:43:00,11.0,8.0,-100.00,SSW,200,0.0,0.0,85,-99.99,,,-99.99,,2013-01-28 15:43:00,
2013-01-28 08:53:00,11.0,8.0,-100.00,SSW,200,0.0,0.0,85,-99.99,,,-99.99,,2013-01-28 15:53:00,
2013-01-28 09:00:00,12.0,8.0,-100.00,SSW,211,0.0,0.0,85,-99.99,,,-99.99,,2013-01-28 16:00:00,
2013-01-28 09:33:00,12.0,8.0,-100.00,SSW,211,0.0,0.0,85,-99.99,,,-99.99,,2013-01-28 16:33:00,
2013-01-28 09:43:00,12.0,8.0,-100.00,SSW,211,0.0,0.0,85,-99.99,,,-99.99,,2013-01-28 16:43:00,
2013-01-28 09:53:00,12.0,8.0,-100.00,SSW,211,0.0,0.0,85,-99.99,,,-99.99,,2013-01-28 16:53:00,
2013-01-28 10:00:00,13.0,9.0,-100.00,SW,221,0.0,0.0,84,-99.99,,,-99.99,,2013-01-28 17:00:00,
2013-01-28 10:33:00,13.0,9.0,-100.00,SW,221,0.0,0.0,84,-99.99,,,-99.99,,2013-01-28 17:33:00,
2013-01-28 10:42:00,13.0,9.0,-100.00,SW,221,0.0,0.0,84,-99.99,,,-99.99,,2013-01-28 17:42:00,
2013-01-28 10:52:00,13.0,9.0,-100.00,SW,221,0.0,0.0,84,-99.99,,,-99.99,,2013-01-28 17:52:00,
2013-01-28 11:00:00,16.0,11.0,-100.00,SW,223,0.0,0.0,82,-99.99,,,-99.99,,2013-01-28 18:00:00,
2013-01-28 11:33:00,16.0,11.0,-100.00,SW,223,0.0,0.0,82,-99.99,,,-99.99,,2013-01-28 18:33:00,
2013-01-28 11:42:00,16.0,11.0,-100.00,SW,223,0.0,0.0,82,-99.99,,,-99.99,,2013-01-28 18:42:00,
2013-01-28 11:52:00,16.0,11.0,-100.00,SW,223,0.0,0.0,82,-99.99,,,-99.99,,2013-01-28 18:52:00,
2013-01-28 12:00:00,17.0,13.0,-100.00,SW,220,0.0,0.0,82,-99.99,,,-99.99,,2013-01-28 19:00:00,
2013-01-28 12:33:00,17.0,13.0,-100.00,SW,220,0.0,0.0,82,-99.99,,,-99.99,,2013-01-28 19:33:00,
2013-01-28 12:42:00,17.0,13.0,-100.00,SW,220,0.0,0.0,82,-99.99,,,-99.99,,2013-01-28 19:42:00,
2013-01-28 12:52:00,17.0,13.0,-100.00,SW,220,0.0,0.0,82,-99.99,,,-99.99,,2013-01-28 19:52:00,
2013-01-28 13:00:00,16.0,12.0,-100.00,SW,215,0.0,0.0,85,-99.99,,,-99.99,,2013-01-28 20:00:00,
2013-01-28 13:33:00,16.0,12.0,-100.00,SW,215,0.0,0.0,85,-99.99,,,-99.99,,2013-01-28 20:33:00,
2013-01-28 13:43:00,16.0,12.0,-100.00,SW,215,0.0,0.0,85,-99.99,,,-99.99,,2013-01-28 20:43:00,
2013-01-28 13:52:00,16.0,12.0,-100.00,SW,215,0.0,0.0,85,-99.99,,,-99.99,,2013-01-28 20:52:00,
2013-01-28 14:00:00,14.0,10.0,-100.00,SW,220,0.0,0.0,85,-99.99,,,-99.99,,2013-01-28 21:00:00,
2013-01-28 14:33:00,14.0,10.0,-100.00,SW,220,0.0,0.0,85,-99.99,,,-99.99,,2013-01-28 21:33:00,
2013-01-28 14:43:00,14.0,10.0,-100.00,SW,220,0.0,0.0,85,-99.99,,,-99.99,,2013-01-28 21:43:00,
2013-01-28 14:53:00,14.0,10.0,-100.00,SW,220,0.0,0.0,85,-99.99,,,-99.99,,2013-01-28 21:53:00,
2013-01-28 15:00:00,12.0,9.0,-100.00,WSW,240,0.0,0.0,86,-99.99,,,-99.99,,2013-01-28 22:00:00,
2013-01-28 15:33:00,12.0,9.0,-100.00,WSW,240,0.0,0.0,86,-99.99,,,-99.99,,2013-01-28 22:33:00,
2013-01-28 15:42:00,12.0,9.0,-100.00,WSW,240,0.0,0.0,86,-99.99,,,-99.99,,2013-01-28 22:42:00,
2013-01-28 15:52:00,12.0,9.0,-100.00,WSW,240,0.0,0.0,86,-99.99,,,-99.99,,2013-01-28 22:52:00,
2013-01-28 16:00:00,12.0,8.0,-100.00,SW,232,0.0,0.0,85,-99.99,,,-99.99,,2013-01-28 23:00:00,
2013-01-28 16:33:00,12.0,8.0,-100.00,SW,232,0.0,0.0,85,-99.99,,,-99.99,,2013-01-28 23:33:00,
2013-01-28 16:42:00,12.0,8.0,-100.00,SW,232,0.0,0.0,85,-99.99,,,-99.99,,2013-01-28 23:42:00,
2013-01-28 16:53:00,12.0,8.0,-100.00,SW,232,0.0,0.0,85,-99.99,,,-99.99,,2013-01-28 23:53:00,
2013-01-28 17:00:00,12.0,9.0,-100.00,SW,219,0.0,0.0,85,-99.99,,,-99.99,,2013-01-29 00:00:00,
2013-01-28 17:33:00,12.0,9.0,-100.00,SW,219,0.0,0.0,85,-99.99,,,-99.99,,2013-01-29 00:33:00,
2013-01-28 17:42:00,12.0,9.0,-100.00,SW,219,0.0,0.0,85,-99.99,,,-99.99,,2013-01-29 00:42:00,
2013-01-28 17:52:00,12.0,9.0,-100.00,SW,219,0.0,0.0,85,-99.99,,,-99.99,,2013-01-29 00:52:00,
2013-01-28 18:00:00,12.0,8.0,-100.00,SW,221,0.0,0.0,84,-99.99,,,-99.99,,2013-01-29 01:00:00,
2013-01-28 18:32:00,12.0,8.0,-100.00,SW,221,0.0,0.0,84,-99.99,,,-99.99,,2013-01-29 01:32:00,
2013-01-28 18:42:00,12.0,8.0,-100.00,SW,221,0.0,0.0,84,-99.99,,,-99.99,,2013-01-29 01:42:00,
2013-01-28 18:52:00,12.0,8.0,-100.00,SW,221,0.0,0.0,84,-99.99,,,-99.99,,2013-01-29 01:52:00,
2013-01-28 19:00:00,12.0,8.0,-100.00,SW,227,0.0,0.0,85,-99.99,,,-99.99,,2013-01-29 02:00:00,
2013-01-28 19:33:00,12.0,8.0,-100.00,SW,227,0.0,0.0,85,-99.99,,,-99.99,,2013-01-29 02:33:00,
2013-01-28 19:42:00,12.0,8.0,-100.00,SW,227,0.0,0.0,85,-99.99,,,-99.99,,2013-01-29 02:42:00,
2013-01-28 19:53:00,12.0,8.0,-100.00,SW,227,0.0,0.0,85,-99.99,,,-99.99,,2013-01-29 02:53:00,
2013-01-28 20:00:00,11.0,8.0,-100.00,SW,229,0.0,0.0,84,-99.99,,,-99.99,,2013-01-29 03:00:00,
2013-01-28 20:32:00,11.0,8.0,-100.00,SW,229,0.0,0.0,84,-99.99,,,-99.99,,2013-01-29 03:32:00,
2013-01-28 20:42:00,11.0,8.0,-100.00,SW,229,0.0,0.0,84,-99.99,,,-99.99,,2013-01-29 03:42:00,
2013-01-28 20:53:00,11.0,8.0,-100.00,SW,229,0.0,0.0,84,-99.99,,,-99.99,,2013-01-29 03:53:00,
2013-01-28 21:00:00,12.0,8.0,-100.00,SW,229,0.0,0.0,85,-99.99,,,-99.99,,2013-01-29 04:00:00,
2013-01-28 21:32:00,12.0,8.0,-100.00,SW,229,0.0,0.0,85,-99.99,,,-99.99,,2013-01-29 04:32:00,
2013-01-28 21:42:00,12.0,8.0,-100.00,SW,229,0.0,0.0,85,-99.99,,,-99.99,,2013-01-29 04:42:00,
2013-01-28 21:52:00,12.0,8.0,-100.00,SW,229,0.0,0.0,85,-99.99,,,-99.99,,2013-01-29 04:52:00,
2013-01-28 22:00:00,12.0,8.0,-100.00,SW,235,0.0,0.0,86,-99.99,,,-99.99,,2013-01-29 05:00:00,
2013-01-28 22:32:00,12.0,8.0,-100.00,SW,235,0.0,0.0,86,-99.99,,,-99.99,,2013-01-29 05:32:00,
2013-01-28 22:43:00,12.0,8.0,-100.00,SW,235,0.0,0.0,86,-99.99,,,-99.99,,2013-01-29 05:43:00,
2013-01-28 22:52:00,12.0,8.0,-100.00,SW,235,0.0,0.0,86,-99.99,,,-99.99,,2013-01-29 05:52:00,
2013-01-28 23:00:00,12.0,8.0,-100.00,SW,233,0.0,0.0,85,-99.99,,,-99.99,,2013-01-29 06:00:00,
2013-01-28 23:32:00,12.0,8.0,-100.00,SW,233,0.0,0.0,85,-99.99,,,-99.99,,2013-01-29 06:32:00,
2013-01-28 23:42:00,12.0,8.0,-100.00,SW,233,0.0,0.0,85,-99.99,,,-99.99,,2013-01-29 06:42:00,
2013-01-28 23:52:00,12.0,8.0,-100.00,SW,233,0.0,0.0,85,-99.99,,,-99.99,,2013-01-29 06:52:00,